Location: Unspecified
(0.0000°N, 0.0000°E)
Time: 23:50:41
(UTC+02:00)

Cosmos 1833 Rocket - Visible Passes

Search period start: 23 September 2017 00:00
Search period end: 03 October 2017 00:00
Orbit: 833 x 839 km, 71.0° (Epoch: 23 September)

Date Brightness Start Highest point End Pass type
(mag) Time Alt. Az. Time Alt. Az. Time Alt. Az.
23 Sep 4.0 22:00:37 10° SSW 22:03:31 32° SSW 22:03:31 32° SSW visible
24 Sep 2.7 21:43:54 10° SSW 21:49:08 75° SW 21:49:08 75° SW visible
25 Sep 2.6 21:27:13 10° SSW 21:32:52 90° ESE 21:35:09 38° NNE visible
26 Sep 2.5 21:10:33 10° SSW 21:16:12 81° ESE 21:21:45 10° NNE visible
27 Sep 2.6 20:53:53 10° S 20:59:30 72° ESE 21:05:06 10° NNE visible
28 Sep 2.7 20:37:15 10° S 20:42:49 64° ESE 20:48:23 10° NNE visible
29 Sep 2.8 20:20:37 10° S 20:26:09 57° ESE 20:31:38 10° NNE visible
30 Sep 5.8 07:23:14 10° NE 07:25:54 14° ENE 07:28:34 10° ESE visible
30 Sep 2.9 20:04:00 10° S 20:09:28 50° ESE 20:14:53 10° NNE visible
30 Sep 5.8 21:52:25 10° W 21:53:06 10° WNW 21:53:49 10° WNW visible
01 Oct 5.9 07:07:14 10° NE 07:09:13 12° ENE 07:11:12 10° E visible
01 Oct 5.7 21:34:26 10° W 21:36:25 12° WNW 21:38:24 10° NW visible
02 Oct 6.1 06:51:48 10° ENE 06:52:31 10° ENE 06:53:15 10° E visible
02 Oct 5.6 21:17:04 10° WSW 21:19:44 14° WNW 21:22:24 10° NW visible
